Location: Colorado Springs
(38.8340°N, 104.8210°W)
Time: 07:41:21
(UTC-06:00)

Envisat - Pass Details

Date: 09 October 2017
Orbit: 764 x 766 km, 98.2° (Epoch: 23 October)

Event Time Altitude Azimuth Distance (km) Brightness Sun altitude
Exits shadow 21:24:53 36° 300° (WNW) 1,211 4.4 -34.5°
Drops below altitude 10° 21:28:22 10° 333° (NNW) 2,308 6.0 -35.1°
Sets 21:30:48 0° 340° (NNW) 3,239 6.8 -35.6°
